Weather History for Half Moon Bay, CA

Change the Weather History Date:

Thursday, November 7, 2013

  Actual Average Record
Temperature  
Mean Temperature 54 °F -  
Max Temperature 62 °F 62 °F 62 °F (2013)
Min Temperature 46 °F 47 °F 39 °F (2011)
Degree Days  
Heating Degree Days 11    
Growing Degree Days 4 (Base 50)    
Moisture  
Dew Point 46 °F    
Average Humidity 76    
Maximum Humidity 94    
Minimum Humidity 52    
Precipitation  
Precipitation 0.00 in - - ()
Sea Level Pressure  
Sea Level Pressure 30.14 in    
Wind  
Wind Speed 5 mph (NNW)    
Max Wind Speed 16 mph    
Max Gust Speed 23 mph    
Visibility 7 miles    
Events      
Averages and records for this station are not official NWS values.
T = Trace of Precipitation, MM = Missing Value Source: NWS Daily Summary

Daily Weather History Graph

Daily Weather History Graph

Search for Another Location

Airport:

Trip Planner

Search our weather history database for the weather conditions in past years. The results will help you decide how hot, cold, wet, or windy it might be!

Date:

Astronomy

Nov. 07, 2013 Rise Set
Actual Time 6:41 AM PST 5:05 PM PST
Civil Twilight 6:14 AM PST 5:32 PM PST
Nautical Twilight 5:42 AM PST 6:04 PM PST
Astronomical Twilight 5:12 AM PST 6:34 PM PST
Moon 10:53 AM PST (11/7) 9:24 PM PST (11/7)
Length of Visible Light 11h 18m
Length of Day
10h 23m
Waxing Crescent, 24% of the Moon is Illuminated
Nov 7
Waxing Crescent
Nov 9
First Quarter
Nov 17
Full
Nov 25
Last Quarter
Dec 2
New

Hourly Weather History & Observations

Time (PST) Temp. Dew Point Humidity Pressure Visibility Wind Dir Wind Speed Gust Speed Precip Events Conditions
12:15 AM 50.0 °F 41.0 °F 71% 30.17 in 7.0 mi NNE 3.5 mph - N/A   Unknown
12:35 AM 50.0 °F 41.0 °F 71% 30.17 in 8.0 mi Calm Calm - N/A   Unknown
12:55 AM 48.2 °F 39.2 °F 71% 30.17 in 9.0 mi Calm Calm - N/A   Unknown
1:15 AM 50.0 °F 39.2 °F 66% 30.17 in 10.0 mi Calm Calm - N/A   Unknown
1:35 AM 50.0 °F 41.0 °F 71% 30.17 in 9.0 mi Calm Calm - N/A   Clear
1:55 AM 48.2 °F 41.0 °F 76% 30.17 in 10.0 mi Calm Calm - N/A   Clear
2:15 AM 48.2 °F 39.2 °F 71% 30.17 in 9.0 mi Calm Calm - N/A   Unknown
2:35 AM 48.2 °F 41.0 °F 76% 30.16 in 10.0 mi NE 4.6 mph - N/A   Clear
2:55 AM 48.2 °F 41.0 °F 76% 30.15 in 10.0 mi Calm Calm - N/A   Clear
3:15 AM 48.2 °F 41.0 °F 76% 30.15 in 10.0 mi Calm Calm - N/A   Clear
3:35 AM 50.0 °F 39.2 °F 66% 30.15 in 10.0 mi Calm Calm - N/A   Clear
3:55 AM 48.2 °F 39.2 °F 71% 30.15 in 10.0 mi Calm Calm - N/A   Clear
4:15 AM 50.0 °F 35.6 °F 58% 30.14 in 10.0 mi Calm Calm - N/A   Clear
4:35 AM 48.2 °F 37.4 °F 66% 30.14 in 10.0 mi Calm Calm - N/A   Unknown
4:55 AM 46.4 °F 37.4 °F 71% 30.14 in 10.0 mi Calm Calm - N/A   Clear
5:15 AM 48.2 °F 37.4 °F 66% 30.14 in 10.0 mi Calm Calm - N/A   Unknown
5:35 AM 48.2 °F 37.4 °F 66% 30.14 in 10.0 mi Calm Calm - N/A   Clear
5:55 AM 48.2 °F 35.6 °F 62% 30.15 in 10.0 mi NNW 4.6 mph - N/A   Clear
6:15 AM 48.2 °F 39.2 °F 71% 30.16 in 6.0 mi NNW 3.5 mph - N/A   Haze
6:35 AM 48.2 °F 37.4 °F 66% 30.16 in 8.0 mi NNE 3.5 mph - N/A   Clear
6:55 AM 48.2 °F 39.2 °F 71% 30.16 in 5.0 mi NW 4.6 mph - N/A   Haze
7:15 AM 48.2 °F 35.6 °F 62% 30.17 in 7.0 mi Calm Calm - N/A   Clear
7:35 AM 46.4 °F 37.4 °F 71% 30.17 in 7.0 mi Calm Calm - N/A   Clear
7:55 AM 46.4 °F 37.4 °F 71% 30.17 in 7.0 mi Calm Calm - N/A   Clear
8:05 AM 48.2 °F 37.4 °F 66% 30.17 in 7.0 mi Calm Calm - N/A   Clear
8:10 AM 50.0 °F 35.6 °F 58% 30.17 in 7.0 mi Calm Calm - N/A   Clear
8:50 AM 55.4 °F 44.6 °F 67% 30.18 in 4.0 mi NNW 6.9 mph - N/A   Haze
9:10 AM 55.4 °F 48.2 °F 77% 30.18 in 4.0 mi NNW 8.1 mph - N/A   Haze
9:30 AM 55.4 °F 50.0 °F 82% 30.18 in 4.0 mi NNW 5.8 mph - N/A   Haze
9:50 AM 57.2 °F 50.0 °F 77% 30.17 in 5.0 mi Calm Calm - N/A   Haze
10:10 AM 62.6 °F 48.2 °F 59% 30.17 in 5.0 mi SSE 8.1 mph - N/A   Haze
10:30 AM 60.8 °F 48.2 °F 63% 30.16 in 5.0 mi South 4.6 mph - N/A   Haze
10:50 AM - - N/A% - - North - - N/A   Unknown
11:10 AM 59.0 °F 50.0 °F 72% 30.16 in 5.0 mi NNW 12.7 mph - N/A   Haze
11:30 AM 62.6 °F 46.4 °F 55% 30.16 in 5.0 mi NNW 9.2 mph - N/A   Haze
11:50 AM 62.6 °F 46.4 °F 55% 30.15 in 5.0 mi NW 13.8 mph - N/A   Haze
12:10 PM 62.6 °F 44.6 °F 52% 30.15 in 6.0 mi NW 11.5 mph - N/A   Haze
12:30 PM 62.6 °F 48.2 °F 59% 30.14 in 7.0 mi NW 13.8 mph - N/A   Clear
12:50 PM 60.8 °F 48.2 °F 63% 30.14 in 6.0 mi NNW 16.1 mph - N/A   Haze
1:10 PM 59.0 °F 48.2 °F 67% 30.13 in 7.0 mi NNW 15.0 mph 20.7 mph N/A   Clear
1:30 PM 59.0 °F 50.0 °F 72% 30.13 in 7.0 mi NNW 16.1 mph 21.9 mph N/A   Clear
1:50 PM 59.0 °F 50.0 °F 72% 30.13 in 7.0 mi NNW 13.8 mph 20.7 mph N/A   Clear
2:10 PM 59.0 °F 51.8 °F 77% 30.12 in 8.0 mi NNW 13.8 mph - N/A   Clear
2:30 PM 59.0 °F 50.0 °F 72% 30.12 in 9.0 mi NNW 15.0 mph 20.7 mph N/A   Clear
2:50 PM 60.8 °F 48.2 °F 63% 30.11 in 8.0 mi NNW 15.0 mph - N/A   Clear
3:10 PM 59.0 °F 48.2 °F 67% 30.11 in 8.0 mi NNW 13.8 mph - N/A   Clear
3:30 PM 59.0 °F 50.0 °F 72% 30.11 in 9.0 mi NNW 13.8 mph 19.6 mph N/A   Clear
3:50 PM 59.0 °F 50.0 °F 72% 30.11 in 8.0 mi NNW 12.7 mph - N/A   Clear
4:10 PM 59.0 °F 50.0 °F 72% 30.11 in 9.0 mi NNW 15.0 mph 19.6 mph N/A   Clear
4:30 PM 57.2 °F 50.0 °F 77% 30.11 in 8.0 mi NNW 13.8 mph 19.6 mph N/A   Clear
4:50 PM 57.2 °F 50.0 °F 77% 30.11 in 6.0 mi NNW 16.1 mph 23.0 mph N/A   Haze
5:10 PM 55.4 °F 51.8 °F 88% 30.11 in 5.0 mi NNW 13.8 mph 18.4 mph N/A   Clear
5:30 PM 55.4 °F 51.8 °F 88% 30.11 in 6.0 mi NNW 10.4 mph - N/A   Clear
5:50 PM 55.4 °F 51.8 °F 88% 30.11 in 7.0 mi NNW 8.1 mph - N/A   Clear
6:10 PM 55.4 °F 51.8 °F 88% 30.12 in 7.0 mi NNW 12.7 mph 17.3 mph N/A   Clear
6:30 PM 55.4 °F 53.6 °F 94% 30.12 in 7.0 mi North 9.2 mph 17.3 mph N/A   Clear
6:50 PM 55.4 °F 53.6 °F 94% 30.12 in 7.0 mi North 12.7 mph 16.1 mph N/A   Partly Cloudy
7:10 PM 55.4 °F 53.6 °F 94% 30.12 in 7.0 mi North 9.2 mph - N/A   Clear
7:30 PM 55.4 °F 53.6 °F 94% 30.12 in 7.0 mi North 10.4 mph 17.3 mph N/A   Clear
7:50 PM 55.4 °F 53.6 °F 94% 30.12 in 7.0 mi North 9.2 mph - N/A   Clear
8:10 PM 55.4 °F 53.6 °F 94% 30.12 in 8.0 mi North 8.1 mph - N/A   Clear
8:30 PM 55.4 °F 53.6 °F 94% 30.12 in 7.0 mi North 11.5 mph 17.3 mph N/A   Clear
8:50 PM 55.4 °F 53.6 °F 94% 30.12 in 7.0 mi North 10.4 mph 19.6 mph N/A   Clear
9:10 PM 55.4 °F 53.6 °F 94% 30.12 in 7.0 mi NNW 13.8 mph 19.6 mph N/A   Clear
9:30 PM 55.4 °F 53.6 °F 94% 30.12 in 6.0 mi North 9.2 mph - N/A   Clear
9:50 PM 55.4 °F 53.6 °F 94% 30.12 in 7.0 mi NNW 13.8 mph - N/A   Clear
10:10 PM 55.4 °F 51.8 °F 88% 30.12 in 6.0 mi NNW 8.1 mph - N/A   Clear
10:30 PM 55.4 °F 51.8 °F 88% 30.12 in 7.0 mi Calm Calm - N/A   Clear
10:50 PM 55.4 °F 53.6 °F 94% 30.12 in 7.0 mi NNW 5.8 mph - N/A   Mostly Cloudy
11:10 PM 55.4 °F 53.6 °F 94% 30.12 in 6.0 mi NNW 8.1 mph - N/A   Overcast
11:30 PM 53.6 °F 51.8 °F 94% 30.11 in 5.0 mi NNW 10.4 mph - N/A   Overcast
11:50 PM 53.6 °F 51.8 °F 94% 30.11 in 2.0 mi NNW 9.2 mph - N/A   Overcast